When you browse on this site, cookies collect data to enhance your experience and personalize the content and advertising you see.
Visit our Privacy Policy to learn more. By continuing to use the site, you agree to this use of cookies and data.

Stündliche Wetter Oran

Heute, 14 Juli, Dienstag

Zeit Temperatur Niederschläge Wind Luftdruck Luftfeuchtigkeit
00:00 +24°C° 0 mm 2 m/S 752 mmHg 84%
01:00 +24°C° 0 mm 2 m/S 751 mmHg 86%
02:00 +24°C° 0 mm 2 m/S 751 mmHg 88%
03:00 +23°C° 0 mm 2 m/S 751 mmHg 90%
04:00 +24°C° 0 mm 2 m/S 751 mmHg 89%
05:00 +24°C° 0 mm 2 m/S 751 mmHg 87%
06:00 +24°C° 0 mm 2 m/S 751 mmHg 86%
07:00 +25°C° 0 mm 2 m/S 751 mmHg 80%
08:00 +26°C° 0 mm 2 m/S 751 mmHg 74%
09:00 +27°C° 0 mm 2 m/S 751 mmHg 67%
10:00 +29°C° 0 mm 3 m/S 750 mmHg 62%
11:00 +30°C° 0 mm 4 m/S 750 mmHg 56%
12:00 +33°C° 0 mm 5 m/S 750 mmHg 51%
13:00 +33°C° 0 mm 5 m/S 749 mmHg 50%
14:00 +33°C° 0 mm 6 m/S 749 mmHg 50%
15:00 +33°C° 0 mm 6 m/S 748 mmHg 49%
16:00 +32°C° 0 mm 6 m/S 748 mmHg 51%
17:00 +30°C° 0 mm 6 m/S 748 mmHg 54%
18:00 +29°C° 0 mm 5 m/S 748 mmHg 56%
19:00 +28°C° 0 mm 5 m/S 748 mmHg 61%
20:00 +27°C° 0 mm 4 m/S 749 mmHg 66%
21:00 +26°C° 0 mm 4 m/S 749 mmHg 71%
22:00 +25°C° 0 mm 4 m/S 749 mmHg 75%
23:00 +25°C° 0 mm 4 m/S 749 mmHg 79%

Morgen, 15 Juli, Mittwoch

Zeit Temperatur Niederschläge Wind Luftdruck Luftfeuchtigkeit
00:00 +23°C° 0 mm 4 m/S 749 mmHg 82%
01:00 +24°C° 0 mm 3 m/S 749 mmHg 84%
02:00 +24°C° 0 mm 3 m/S 749 mmHg 87%
03:00 +23°C° 0 mm 2 m/S 749 mmHg 89%
04:00 +24°C° 0 mm 3 m/S 749 mmHg 87%
05:00 +24°C° 0 mm 3 m/S 749 mmHg 86%
06:00 +24°C° 0 mm 3 m/S 749 mmHg 84%
07:00 +26°C° 0 mm 4 m/S 749 mmHg 75%
08:00 +28°C° 0 mm 4 m/S 750 mmHg 65%
09:00 +30°C° 0 mm 4 m/S 750 mmHg 56%
10:00 +32°C° 0 mm 5 m/S 750 mmHg 50%
11:00 +34°C° 0 mm 6 m/S 750 mmHg 44%
12:00 +36°C° 0 mm 6 m/S 750 mmHg 38%
13:00 +36°C° 0 mm 7 m/S 749 mmHg 39%
14:00 +35°C° 0 mm 8 m/S 749 mmHg 41%
15:00 +35°C° 0 mm 9 m/S 749 mmHg 43%
16:00 +34°C° 0 mm 9 m/S 749 mmHg 45%
17:00 +32°C° 0 mm 9 m/S 749 mmHg 47%
18:00 +31°C° 0 mm 8 m/S 748 mmHg 50%
19:00 +29°C° 0 mm 7 m/S 749 mmHg 53%
20:00 +28°C° 0 mm 6 m/S 750 mmHg 56%
21:00 +27°C° 0 mm 5 m/S 750 mmHg 60%
22:00 +27°C° 0 mm 6 m/S 750 mmHg 62%
23:00 +27°C° 0 mm 6 m/S 750 mmHg 65%

übermorgen, 16 Juli, Donnerstag

Zeit Temperatur Niederschläge Wind Luftdruck Luftfeuchtigkeit
00:00 +26°C° 0 mm 6 m/S 750 mmHg 67%
01:00 +26°C° 0 mm 5 m/S 750 mmHg 69%
02:00 +25°C° 0 mm 5 m/S 750 mmHg 72%
03:00 +25°C° 0 mm 4 m/S 750 mmHg 74%
04:00 +25°C° 0 mm 4 m/S 750 mmHg 74%
05:00 +26°C° 0 mm 4 m/S 750 mmHg 74%
06:00 +26°C° 0 mm 4 m/S 750 mmHg 74%
07:00 +27°C° 0 mm 5 m/S 750 mmHg 65%
08:00 +29°C° 0 mm 5 m/S 751 mmHg 56%
09:00 +32°C° 0 mm 5 m/S 751 mmHg 48%
10:00 +33°C° 0 mm 6 m/S 751 mmHg 45%
11:00 +34°C° 0 mm 7 m/S 751 mmHg 42%
12:00 +36°C° 0 mm 7 m/S 751 mmHg 40%
13:00 +35°C° 0 mm 8 m/S 750 mmHg 40%
14:00 +35°C° 0 mm 8 m/S 750 mmHg 41%
15:00 +34°C° 0 mm 9 m/S 750 mmHg 42%
16:00 +34°C° 0 mm 8 m/S 750 mmHg 42%
17:00 +33°C° 0 mm 8 m/S 749 mmHg 42%
18:00 +32°C° 0 mm 7 m/S 749 mmHg 42%
19:00 +30°C° 0 mm 7 m/S 750 mmHg 45%
20:00 +29°C° 0 mm 6 m/S 750 mmHg 49%
21:00 +28°C° 0 mm 5 m/S 751 mmHg 52%
22:00 +27°C° 0 mm 4 m/S 751 mmHg 55%
23:00 +27°C° 0 mm 4 m/S 751 mmHg 57%

17 Juli, Freitag

Zeit Temperatur Niederschläge Wind Luftdruck Luftfeuchtigkeit
00:00 +26°C° 0 mm 3 m/S 751 mmHg 60%
01:00 +26°C° 0 mm 4 m/S 751 mmHg 62%
02:00 +25°C° 0 mm 4 m/S 750 mmHg 64%
03:00 +25°C° 0 mm 4 m/S 750 mmHg 65%
04:00 +25°C° 0 mm 4 m/S 750 mmHg 66%
05:00 +26°C° 0 mm 4 m/S 750 mmHg 67%
06:00 +26°C° 0 mm 4 m/S 750 mmHg 68%
07:00 +27°C° 0 mm 4 m/S 750 mmHg 60%
08:00 +29°C° 0 mm 4 m/S 751 mmHg 52%
09:00 +32°C° 0 mm 4 m/S 751 mmHg 45%
10:00 +33°C° 0 mm 5 m/S 750 mmHg 40%
11:00 +35°C° 0 mm 5 m/S 750 mmHg 35%
12:00 +37°C° 0 mm 5 m/S 750 mmHg 31%
13:00 +36°C° 0 mm 6 m/S 750 mmHg 31%
14:00 +36°C° 0 mm 6 m/S 749 mmHg 32%
15:00 +36°C° 0 mm 7 m/S 749 mmHg 32%
16:00 +35°C° 0 mm 7 m/S 749 mmHg 35%
17:00 +34°C° 0 mm 7 m/S 749 mmHg 37%
18:00 +33°C° 0 mm 6 m/S 748 mmHg 40%
19:00 +32°C° 0 mm 5 m/S 749 mmHg 43%
20:00 +29°C° 0 mm 5 m/S 749 mmHg 47%
21:00 +28°C° 0 mm 4 m/S 750 mmHg 50%
22:00 +28°C° 0 mm 3 m/S 750 mmHg 53%
23:00 +27°C° 0 mm 3 m/S 750 mmHg 55%

18 Juli, Samstag

Zeit Temperatur Niederschläge Wind Luftdruck Luftfeuchtigkeit
00:00 +26°C° 0 mm 2 m/S 750 mmHg 58%
01:00 +26°C° 0 mm 2 m/S 750 mmHg 61%
02:00 +26°C° 0 mm 3 m/S 750 mmHg 64%
03:00 +25°C° 0 mm 3 m/S 749 mmHg 68%
04:00 +25°C° 0 mm 3 m/S 749 mmHg 68%
05:00 +26°C° 0 mm 3 m/S 749 mmHg 68%
06:00 +26°C° 0 mm 3 m/S 749 mmHg 69%
07:00 +28°C° 0 mm 3 m/S 750 mmHg 59%
08:00 +30°C° 0 mm 3 m/S 750 mmHg 49%
09:00 +33°C° 0 mm 3 m/S 750 mmHg 39%
10:00 +35°C° 0 mm 3 m/S 750 mmHg 35%
11:00 +36°C° 0 mm 4 m/S 750 mmHg 32%
12:00 +38°C° 0 mm 4 m/S 750 mmHg 28%
13:00 +39°C° 0 mm 5 m/S 749 mmHg 28%
14:00 +39°C° 0 mm 6 m/S 749 mmHg 29%
15:00 +39°C° 0 mm 6 m/S 749 mmHg 29%
16:00 +38°C° 0 mm 6 m/S 749 mmHg 31%
17:00 +35°C° 0 mm 6 m/S 749 mmHg 32%
18:00 +34°C° 0 mm 6 m/S 749 mmHg 34%
19:00 +33°C° 0 mm 5 m/S 749 mmHg 37%
20:00 +32°C° 0 mm 4 m/S 750 mmHg 41%
21:00 +29°C° 0 mm 3 m/S 750 mmHg 44%
22:00 +28°C° 0 mm 3 m/S 750 mmHg 48%
23:00 +28°C° 0 mm 2 m/S 750 mmHg 52%

19 Juli, Sonntag

Zeit Temperatur Niederschläge Wind Luftdruck Luftfeuchtigkeit
00:00 +27°C° 0 mm 2 m/S 750 mmHg 56%
01:00 +27°C° 0 mm 2 m/S 750 mmHg 59%
02:00 +26°C° 0 mm 2 m/S 750 mmHg 61%
03:00 +26°C° 0 mm 2 m/S 750 mmHg 64%
04:00 +26°C° 0 mm 2 m/S 750 mmHg 66%
05:00 +26°C° 0 mm 2 m/S 750 mmHg 67%
06:00 +26°C° 0 mm 2 m/S 750 mmHg 69%
07:00 +28°C° 0 mm 2 m/S 750 mmHg 60%
08:00 +30°C° 0 mm 2 m/S 751 mmHg 52%
09:00 +32°C° 0 mm 2 m/S 751 mmHg 43%
10:00 +35°C° 0 mm 2 m/S 751 mmHg 39%
11:00 +36°C° 0 mm 3 m/S 751 mmHg 35%
12:00 +38°C° 0 mm 3 m/S 751 mmHg 30%
13:00 +38°C° 0 mm 4 m/S 750 mmHg 30%
14:00 +38°C° 0 mm 4 m/S 750 mmHg 29%
15:00 +40°C° 0 mm 5 m/S 750 mmHg 28%
16:00 +38°C° 0 mm 4 m/S 749 mmHg 28%
17:00 +37°C° 0 mm 4 m/S 749 mmHg 28%
18:00 +36°C° 0 mm 4 m/S 749 mmHg 29%
19:00 +34°C° 0 mm 3 m/S 750 mmHg 33%
20:00 +31°C° 0 mm 2 m/S 750 mmHg 38%
21:00 +29°C° 0 mm 1 m/S 750 mmHg 43%
22:00 +28°C° 0 mm 2 m/S 750 mmHg 52%
23:00 +27°C° 0 mm 2 m/S 750 mmHg 61%
Mehr zeigen